Tracking 25710 objects as of 6-Jul-2022
HD Live streaming from Space Station
objects crossing your sky now

FENGYUN 1C DEB

Track FENGYUN 1C DEB now!
10-day predictions


NORAD ID: 31926
Int'l Code: 1999-025CMD
Perigee: 820.8 km
Apogee: 885.5 km
Inclination: 99.0 °
Period: 101.8 minutes
Semi major axis: 7224 km
RCS: 0.0122 m2 (small)
Launch date: May 10, 1999
Source: People's Republic of China (PRC)
Launch site: Taiyaun Space Center, China (TSC)

Note: This is SATELLITE DEBRIS
aabbcc
Your satellite tracking list
Your tracking list is empty




NASA's NSSDC Master Catalog

Two Line Element Set (TLE):
1 31926U 99025CMD 22186.12104727  .00001378  00000-0  74319-3 0  9995
2 31926  99.0054 245.6407 0044769 248.3907 111.2492 14.13920797773832
Source of the keplerian elements: AFSPC